Location: Newark
(39.0622°N, 106.5590°E)
Time: 18:56:41
(UTC+00:00)

Vanguard 2 Rocket - Pass Details

Date: 29 January 2020
Orbit: 554 x 3326 km, 32.9° (Epoch: 16 February)

Event Time Altitude Azimuth Distance (km) Brightness Sun altitude
Rises 03:59:51 0° 255° (WSW) 4,323 10.3 30.7°
Reaches altitude 10° 04:05:35 10° 225° (SW) 4,000 10.6 31.1°
Maximum altitude 04:08:37 11° 208° (SSW) 4,205 11.1 31.3°
Drops below altitude 10° 04:12:04 10° 192° (SSW) 4,678 11.6 31.4°
Sets 04:21:05 0° 165° (SSE) 6,466 12.4 31.9°
